FW9021 Weather Reports


Display with metric or nautical units.
time (UTC)temp
F
wind
direction
speed
MPH
gust
MPH
rain 1hr
in
rain 24hr
in
rain mn
in
humidity
%
barometer
mb
20260906104602 71 0 1.0 3.0 0.00 0.00 0.00 82 1013.7
20260906104041 71 0 0.0 3.0 0.00 0.00 0.00 82 1013.6
20260906103539 70 45 1.0 3.0 0.00 0.00 0.00 82 1013.7
20260906103058 70 0 0.0 3.0 0.00 0.00 0.00 82 1013.5
20260906102540 70 67 1.0 3.0 0.00 0.00 0.00 82 1013.5
20260906102041 70 85 1.0 3.0 0.00 0.00 0.00 82 1013.6
20260906101554 70 0 1.0 3.0 0.00 0.00 0.00 82 1013.5
20260906101040 70 85 1.0 4.0 0.00 0.00 0.00 82 1013.6
20260906100540 70 0 1.0 4.0 0.00 0.00 0.00 82 1013.7
20260906100050 71 76 2.0 4.0 0.00 0.00 0.00 82 1013.8
20260906095543 70 61 1.0 3.0 0.00 0.00 0.00 82 1013.7
20260906095042 70 32 0.0 2.0 0.00 0.00 0.00 82 1013.8
20260906094557 70 32 0.0 3.0 0.00 0.00 0.00 82 1013.9
20260906094041 70 0 1.0 3.0 0.00 0.00 0.00 82 1013.9
20260906093539 70 82 1.0 3.0 0.00 0.00 0.00 82 1013.8
20260906093116 70 171 1.0 4.0 0.00 0.00 0.00 82 1013.8
20260906092538 70 0 0.0 4.0 0.00 0.00 0.00 82 1013.8
20260906092039 70 331 2.0 8.0 0.00 0.00 0.00 82 1013.9
20260906091556 70 0 1.0 9.0 0.00 0.00 0.00 83 1013.7
20260906091041 70 58 5.0 13.0 0.00 0.00 0.00 82 1013.9
20260906090539 71 5 4.0 13.0 0.00 0.00 0.00 82 1013.7
20260906090053 71 355 9.0 13.0 0.00 0.00 0.00 82 1013.8
20260906085541 71 5 2.0 3.0 0.00 0.00 0.00 82 1013.6
20260906085041 70 69 0.0 2.0 0.00 0.00 0.00 82 1013.4
20260906084558 70 109 0.0 2.0 0.00 0.00 0.00 82 1013.3
20260906084041 70 109 0.0 2.0 0.00 0.00 0.00 83 1013.4
20260906083539 70 109 1.0 2.0 0.00 0.00 0.00 83 1013.4
20260906083058 70 109 0.0 2.0 0.00 0.00 0.00 83 1013.5
20260906082538 70 0 0.0 3.0 0.00 0.00 0.00 83 1013.4
20260906082038 70 109 1.0 3.0 0.00 0.00 0.00 83 1013.4
20260906081556 70 0 1.0 3.0 0.00 0.00 0.00 83 1013.4
20260906081042 71 98 0.0 2.0 0.00 0.00 0.00 83 1013.6
20260906080538 71 49 0.0 2.0 0.00 0.00 0.00 83 1013.5
20260906080054 71 0 0.0 3.0 0.00 0.00 0.00 83 1013.4
20260906075542 71 59 1.0 3.0 0.00 0.00 0.00 83 1013.5
20260906075042 71 83 0.0 3.0 0.00 0.00 0.00 83 1013.5
20260906074548 71 0 0.0 0.0 0.00 0.00 0.00 83 1013.3
20260906074041 71 0 0.0 2.0 0.00 0.00 0.00 83 1013.1
20260906073541 71 0 0.0 2.0 0.00 0.00 0.00 83 1013.1
20260906073056 71 0 0.0 2.0 0.00 0.00 0.00 83 1013.1
20260906072539 71 96 0.0 2.0 0.00 0.00 0.00 83 1013.1
20260906072037 71 0 1.0 2.0 0.00 0.00 0.00 83 1013.2
20260906071557 71 108 1.0 2.0 0.00 0.00 0.00 83 1013.4
20260906071038 71 0 0.0 2.0 0.00 0.00 0.00 83 1013.4
20260906070539 71 95 1.0 4.0 0.00 0.00 0.00 83 1013.4
20260906070055 71 51 1.0 4.0 0.00 0.00 0.00 83 1013.4
20260906065538 72 31 2.0 4.0 0.00 0.00 0.00 83 1013.5
20260906065038 72 42 1.0 4.0 0.00 0.00 0.00 83 1013.6
20260906064548 72 39 1.0 3.0 0.00 0.00 0.00 83 1013.6
20260906064037 72 0 0.0 2.0 0.00 0.00 0.00 83 1013.6
20260906063539 72 0 0.0 2.0 0.00 0.00 0.00 83 1013.6
20260906063047 72 103 0.0 3.0 0.00 0.00 0.00 83 1013.6
20260906062540 72 55 1.0 4.0 0.00 0.00 0.00 82 1013.6
20260906062039 72 35 1.0 4.0 0.00 0.00 0.00 82 1013.6
20260906061559 72 28 2.0 4.0 0.00 0.00 0.00 82 1013.7
20260906061039 72 74 2.0 4.0 0.00 0.00 0.00 82 1013.7
20260906060539 72 76 0.0 2.0 0.00 0.00 0.00 83 1013.6
20260906060055 72 107 0.0 2.0 0.00 0.00 0.00 83 1013.7
20260906055540 72 107 0.0 2.0 0.00 0.00 0.00 83 1013.8
20260906055039 72 0 0.0 2.0 0.00 0.00 0.00 83 1013.8
20260906054557 72 107 0.0 2.0 0.00 0.00 0.00 83 1013.9
20260906054040 72 0 0.0 2.0 0.00 0.00 0.00 83 1014.1
20260906053539 72 0 0.0 3.0 0.00 0.00 0.00 83 1014.1
20260906053050 72 0 1.0 3.0 0.00 0.00 0.00 83 1014.2
20260906052542 72 104 0.0 4.0 0.00 0.00 0.00 83 1014.2
20260906052040 72 117 1.0 4.0 0.00 0.00 0.00 83 1014.3
20260906051555 72 83 1.0 3.0 0.00 0.00 0.00 83 1014.4
20260906051039 73 82 1.0 2.0 0.00 0.00 0.00 83 1014.5
20260906050541 73 82 0.0 3.0 0.00 0.00 0.00 83 1014.5
20260906050119 73 82 1.0 4.0 0.00 0.00 0.00 83 1014.5
20260906045539 73 42 2.0 4.0 0.00 0.00 0.00 83 1014.4
20260906045039 73 72 2.0 4.0 0.00 0.00 0.00 83 1014.4
20260906044549 73 27 2.0 4.0 0.00 0.00 0.00 83 1014.4
20260906044038 73 340 2.0 4.0 0.00 0.00 0.00 83 1014.5
20260906043539 73 303 0.0 3.0 0.00 0.00 0.00 83 1014.4
20260906043058 73 28 1.0 2.0 0.00 0.00 0.00 83 1014.3
20260906042540 73 120 0.0 2.0 0.00 0.00 0.00 84 1014.3
20260906042039 73 120 0.0 2.0 0.00 0.00 0.00 84 1014.3
20260906041554 73 0 0.0 2.0 0.00 0.00 0.00 83 1014.2
20260906041039 73 120 0.0 3.0 0.00 0.00 0.00 84 1014.1
20260906040539 73 120 1.0 3.0 0.00 0.00 0.00 84 1014.1
20260906040100 73 44 1.0 3.0 0.00 0.00 0.00 84 1014.2
20260906035541 73 0 0.0 2.0 0.00 0.00 0.00 84 1014.3
20260906035039 74 0 0.0 2.0 0.00 0.00 0.00 84 1014.3
20260906034559 74 0 0.0 2.0 0.00 0.00 0.00 84 1014.4
20260906034039 74 0 0.0 2.0 0.00 0.00 0.00 83 1014.5
20260906033538 74 64 0.0 4.0 0.00 0.00 0.00 83 1014.5
20260906033108 74 0 0.0 4.0 0.00 0.00 0.00 84 1014.4
20260906032544 74 58 3.0 4.0 0.00 0.00 0.00 84 1014.4
20260906032038 74 91 0.0 2.0 0.00 0.00 0.00 84 1014.4
20260906031552 74 0 0.0 2.0 0.00 0.00 0.00 84 1014.4
20260906031038 75 91 0.0 3.0 0.00 0.00 0.00 84 1014.4
20260906030538 75 54 1.0 3.0 0.00 0.00 0.00 84 1014.4
20260906030059 75 30 1.0 3.0 0.00 0.00 0.00 84 1014.3
20260906025539 75 55 1.0 2.0 0.00 0.00 0.00 84 1014.4
20260906025040 75 55 0.0 2.0 0.00 0.00 0.00 84 1014.3
20260906024612 75 55 1.0 2.0 0.00 0.00 0.00 84 1014.3
20260906024038 75 0 0.0 2.0 0.00 0.00 0.00 84 1014.3
20260906023538 75 0 0.0 2.0 0.00 0.00 0.00 84 1014.2
20260906023057 75 26 0.0 2.0 0.00 0.00 0.00 84 1014.3
20260906022538 75 0 0.0 2.0 0.00 0.00 0.00 84 1014.3
20260906022039 76 0 0.0 2.0 0.00 0.00 0.00 84 1014.3
20260906021557 76 0 1.0 3.0 0.00 0.00 0.00 84 1014.4
20260906021039 76 0 0.0 3.0 0.00 0.00 0.00 84 1014.2
20260906020538 76 79 1.0 3.0 0.00 0.00 0.00 84 1014.2
20260906020058 76 42 0.0 2.0 0.00 0.00 0.00 84 1014.3
20260906015538 76 0 0.0 2.0 0.00 0.00 0.00 84 1014.2
20260906015038 76 0 0.0 2.0 0.00 0.00 0.00 84 1014.2
20260906014601 76 67 0.0 2.0 0.00 0.00 0.00 84 1014.1
20260906014039 76 67 0.0 2.0 0.00 0.00 0.00 84 1014.0
20260906013538 76 67 0.0 2.0 0.00 0.00 0.00 84 1013.7
20260906013050 76 0 0.0 2.0 0.00 0.00 0.00 84 1013.6
20260906012537 76 90 0.0 2.0 0.00 0.00 0.00 84 1013.7
20260906012039 76 90 1.0 2.0 0.00 0.00 0.00 84 1013.7
20260906011559 76 90 1.0 2.0 0.00 0.00 0.00 84 1013.6
20260906011039 77 90 0.0 2.0 0.00 0.00 0.00 84 1013.6
20260906010539 77 0 0.0 2.0 0.00 0.00 0.00 84 1013.5
20260906010059 77 355 1.0 2.0 0.00 0.00 0.00 84 1013.4
20260906005539 77 40 0.0 3.0 0.00 0.00 0.00 84 1013.3
20260906005041 77 0 0.0 3.0 0.00 0.00 0.00 84 1013.1
20260906004555 77 40 2.0 3.0 0.00 0.00 0.00 84 1013.1
20260906004038 78 25 0.0 2.0 0.00 0.00 0.00 84 1013.2
20260906003538 78 85 1.0 2.0 0.00 0.00 0.00 84 1013.1
20260906003101 78 85 1.0 2.0 0.00 0.00 0.00 84 1013.2
20260906002538 78 85 1.0 3.0 0.00 0.00 0.00 84 1013.2
20260906002038 78 36 0.0 3.0 0.00 0.00 0.00 84 1013.2
20260906001559 79 36 1.0 5.0 0.00 0.00 0.00 84 1013.2
20260906001038 79 0 0.0 5.0 0.00 0.00 0.00 84 1013.3
20260906000538 79 30 3.0 5.0 0.00 0.00 0.00 83 1013.3
20260906000057 80 24 3.0 4.0 0.00 0.00 0.00 83 1013.4
20260905235538 80 347 0.0 2.0 0.00 0.00 0.00 83 1013.4
20260905235038 80 0 0.0 5.0 0.00 0.00 0.00 82 1013.4
20260905234610 80 0 1.0 5.0 0.00 0.00 0.00 82 1013.4
20260905234038 81 263 0.0 1.0 0.00 0.00 0.00 82 1013.4
20260905233538 81 0 0.0 1.0 0.00 0.00 0.00 81 1013.4
20260905233100 80 0 0.0 0.0 0.00 0.00 0.00 80 1013.2
20260905232536 81 0 0.0 0.0 0.00 0.00 0.00 80 1013.1
20260905232039 81 0 0.0 0.0 0.00 0.00 0.00 80 1013.1
20260905231557 81 0 0.0 1.0 0.00 0.00 0.00 80 1013.1
20260905231038 81 0 0.0 3.0 0.00 0.00 0.00 79 1013.1
20260905230542 81 0 0.0 4.0 0.00 0.00 0.00 79 1013.0
20260905230126 81 236 2.0 4.0 0.00 0.00 0.00 79 1013.2
20260905225542 81 246 2.0 4.0 0.00 0.00 0.00 78 1013.1
20260905225038 81 252 1.0 3.0 0.00 0.00 0.00 78 1013.2
20260905224600 81 0 0.0 2.0 0.00 0.00 0.00 78 1013.2
20260905224038 81 21 0.0 2.0 0.00 0.00 0.00 78 1013.2
20260905223538 81 109 0.0 2.0 0.00 0.00 0.00 77 1013.2
20260905223057 81 88 0.0 4.0 0.00 0.00 0.00 77 1013.3
20260905222541 81 0 0.0 8.0 0.00 0.00 0.00 76 1013.4
20260905222038 81 218 2.0 9.0 0.00 0.00 0.00 77 1013.4
20260905221557 81 236 5.0 9.0 0.00 0.00 0.00 77 1013.4
20260905221038 82 242 5.0 9.0 0.00 0.00 0.00 74 1013.5
20260905220538 82 235 6.0 8.0 0.00 0.00 0.00 71 1013.5
20260905220108 82 244 4.0 8.0 0.00 0.00 0.00 71 1013.4
20260905215538 82 292 2.0 6.0 0.00 0.00 0.00 72 1013.2
20260905215041 81 22 3.0 8.0 0.00 0.00 0.00 72 1013.1
20260905214557 80 360 3.0 8.0 0.00 0.00 0.00 73 1013.2
20260905214038 80 294 4.0 8.0 0.00 0.00 0.00 73 1013.3
20260905213539 80 290 3.0 9.0 0.00 0.00 0.00 73 1013.2
20260905213057 80 269 5.0 11.0 0.00 0.00 0.00 73 1013.4
20260905212539 80 355 5.0 11.0 0.00 0.00 0.00 71 1013.6
20260905212038 81 319 5.0 10.0 0.00 0.00 0.00 72 1013.7
20260905211558 81 12 3.0 6.0 0.00 0.00 0.00 72 1013.8
20260905211039 81 26 1.0 10.0 0.00 0.00 0.00 71 1013.9
20260905210538 81 0 4.0 10.0 0.00 0.00 0.00 69 1013.8
20260905210051 82 292 7.0 10.0 0.00 0.00 0.00 69 1013.8
20260905205539 83 305 5.0 14.0 0.00 0.00 0.00 70 1013.7
20260905205041 84 279 8.0 14.0 0.00 0.00 0.00 69 1013.5
20260905204557 86 255 3.0 4.0 0.00 0.00 0.00 69 1013.4
20260905204039 86 263 1.0 3.0 0.00 0.00 0.00 68 1013.3
20260905203541 87 0 0.0 3.0 0.00 0.00 0.00 68 1013.4
20260905203101 87 69 1.0 5.0 0.00 0.00 0.00 66 1013.5
20260905202539 87 128 1.0 5.0 0.00 0.00 0.00 63 1013.5
20260905202039 88 69 3.0 7.0 0.00 0.00 0.00 63 1013.5
20260905201555 88 20 3.0 11.0 0.00 0.00 0.00 60 1013.7
20260905201039 88 17 6.0 12.0 0.00 0.00 0.00 62 1013.7
20260905200539 89 48 7.0 14.0 0.00 0.00 0.00 61 1013.7
20260905200106 89 43 6.0 14.0 0.00 0.00 0.00 61 1013.8
20260905195538 89 26 8.0 14.0 0.00 0.00 0.00 60 1013.8
20260905195042 89 15 7.0 14.0 0.00 0.00 0.00 63 1013.7
20260905194557 89 0 3.0 14.0 0.00 0.00 0.00 62 1013.6
20260905194040 89 360 8.0 14.0 0.00 0.00 0.00 62 1013.5
20260905193539 89 19 7.0 12.0 0.00 0.00 0.00 63 1013.6
20260905193108 89 24 5.0 12.0 0.00 0.00 0.00 62 1013.6
20260905192539 89 24 4.0 11.0 0.00 0.00 0.00 62 1013.6
20260905192041 89 43 6.0 15.0 0.00 0.00 0.00 62 1013.6
20260905191554 90 24 6.0 15.0 0.00 0.00 0.00 61 1013.7
20260905191039 90 17 5.0 9.0 0.00 0.00 0.00 60 1013.8
20260905190538 89 352 2.0 9.0 0.00 0.00 0.00 60 1014.0
20260905185539 89 333 7.0 13.0 0.00 0.00 0.00 61 1014.1
20260905185038 89 5 1.0 6.0 0.00 0.00 0.00 60 1014.0
20260905184604 89 269 3.0 9.0 0.00 0.00 0.00 60 1013.9
20260905184039 89 313 4.0 9.0 0.00 0.00 0.00 59 1013.8
20260905183540 89 28 2.0 9.0 0.00 0.00 0.00 61 1013.9
20260905183059 89 68 3.0 12.0 0.00 0.00 0.00 61 1014.0
20260905182539 89 33 7.0 12.0 0.00 0.00 0.00 62 1014.2
20260905182039 89 42 5.0 11.0 0.00 0.00 0.00 62 1014.2
20260905181551 89 34 0.0 9.0 0.00 0.00 0.00 61 1014.2
20260905181039 89 324 4.0 10.0 0.00 0.00 0.00 61 1014.3
20260905180539 89 312 3.0 10.0 0.00 0.00 0.00 61 1014.3
20260905180100 89 308 4.0 9.0 0.00 0.00 0.00 63 1014.4
20260905175539 89 344 2.0 8.0 0.00 0.00 0.00 61 1014.5
20260905175039 89 182 2.0 8.0 0.00 0.00 0.00 62 1014.5
20260905174605 89 5 1.0 5.0 0.00 0.00 0.00 64 1014.5
20260905174042 88 55 0.0 9.0 0.00 0.00 0.00 66 1014.6
20260905173540 87 9 3.0 12.0 0.00 0.00 0.00 66 1014.6
20260905173055 88 339 4.0 12.0 0.00 0.00 0.00 66 1014.8
20260905172539 88 340 0.0 5.0 0.00 0.00 0.00 68 1014.8
20260905172039 87 144 2.0 5.0 0.00 0.00 0.00 68 1014.8
20260905171556 87 40 0.0 5.0 0.00 0.00 0.00 69 1014.9
20260905171039 87 295 3.0 6.0 0.00 0.00 0.00 70 1014.9
20260905170539 87 305 3.0 6.0 0.00 0.00 0.00 68 1015.0
20260905170050 87 274 1.0 6.0 0.00 0.00 0.00 68 1015.0
20260905165539 87 360 3.0 7.0 0.00 0.00 0.00 69 1015.1
20260905165038 86 332 2.0 7.0 0.00 0.00 0.00 69 1015.0
20260905164559 86 352 3.0 5.0 0.00 0.00 0.00 69 1015.1
20260905164039 86 0 1.0 5.0 0.00 0.00 0.00 71 1015.2
20260905163539 86 34 2.0 5.0 0.00 0.00 0.00 71 1015.4
20260905163103 85 215 3.0 5.0 0.00 0.00 0.00 73 1015.4
20260905162542 85 227 2.0 5.0 0.00 0.00 0.00 73 1015.4
20260905162039 85 205 3.0 5.0 0.00 0.00 0.00 74 1015.5
20260905161551 84 227 2.0 5.0 0.00 0.00 0.00 75 1015.7
20260905161039 84 239 4.0 5.0 0.00 0.00 0.00 74 1015.7
20260905160538 84 236 3.0 7.0 0.00 0.00 0.00 76 1015.7
20260905160120 84 232 3.0 7.0 0.00 0.00 0.00 76 1015.8
20260905155540 84 259 4.0 6.0 0.00 0.00 0.00 76 1015.8
20260905155041 84 200 1.0 3.0 0.00 0.00 0.00 77 1015.9
20260905154606 83 50 0.0 4.0 0.00 0.00 0.00 78 1016.0
20260905154042 82 0 1.0 4.0 0.00 0.00 0.00 79 1016.0
20260905153541 82 219 1.0 3.0 0.00 0.00 0.00 80 1016.0
20260905153102 81 252 1.0 3.0 0.00 0.00 0.00 80 1016.1
20260905152540 81 236 1.0 4.0 0.00 0.00 0.00 81 1016.0
20260905152041 81 238 2.0 4.0 0.00 0.00 0.00 81 1016.1
20260905151601 80 238 2.0 4.0 0.00 0.00 0.00 82 1016.1
20260905151040 80 229 3.0 4.0 0.00 0.00 0.00 82 1016.1
20260905150543 80 236 2.0 3.0 0.00 0.00 0.00 83 1016.3
20260905150112 79 229 2.0 4.0 0.00 0.00 0.00 83 1016.3
20260905145539 79 242 2.0 4.0 0.00 0.00 0.00 83 1016.3
20260905145042 78 259 2.0 4.0 0.00 0.00 0.00 83 1016.3
20260905144556 78 238 2.0 4.0 0.00 0.00 0.00 83 1016.3
20260905144041 78 251 3.0 5.0 0.00 0.00 0.00 83 1016.3
20260905143540 78 248 2.0 5.0 0.00 0.00 0.00 84 1016.3
20260905143056 78 263 3.0 5.0 0.00 0.00 0.00 84 1016.3
20260905142540 77 246 2.0 4.0 0.00 0.00 0.00 84 1016.5
20260905142040 77 257 2.0 4.0 0.00 0.00 0.00 84 1016.5
20260905141602 77 248 2.0 4.0 0.00 0.00 0.00 84 1016.5
20260905141040 77 242 2.0 4.0 0.00 0.00 0.00 84 1016.5
20260905140540 77 237 1.0 4.0 0.00 0.00 0.00 84 1016.5
20260905140100 76 234 1.0 4.0 0.00 0.00 0.00 84 1016.5
20260905135541 76 0 1.0 3.0 0.00 0.00 0.00 84 1016.7
20260905135040 76 323 1.0 3.0 0.00 0.00 0.00 84 1016.7
20260905134557 76 9 0.0 2.0 0.00 0.00 0.00 83 1016.8
20260905134040 75 0 0.0 2.0 0.00 0.00 0.00 83 1016.8
20260905133541 75 0 0.0 3.0 0.00 0.00 0.00 82 1016.7
20260905133053 75 88 1.0 3.0 0.00 0.00 0.00 82 1016.9
20260905132540 74 93 1.0 3.0 0.00 0.00 0.00 82 1016.8
20260905132042 74 34 2.0 3.0 0.00 0.00 0.00 81 1016.7
20260905131554 74 92 1.0 4.0 0.00 0.00 0.00 81 1016.8
20260905131040 73 44 1.0 4.0 0.00 0.00 0.00 81 1016.9
20260905130540 73 63 2.0 4.0 0.00 0.00 0.00 81 1016.9
20260905130047 73 67 0.0 3.0 0.00 0.00 0.00 81 1016.9
20260905125540 73 27 1.0 4.0 0.00 0.00 0.00 81 1016.9
20260905125040 72 34 1.0 4.0 0.00 0.00 0.00 81 1016.9
20260905124601 72 29 2.0 4.0 0.00 0.00 0.00 81 1016.9
20260905124040 72 26 2.0 4.0 0.00 0.00 0.00 81 1016.8
20260905123540 72 38 1.0 4.0 0.00 0.00 0.00 81 1016.7
20260905123056 72 0 2.0 4.0 0.00 0.00 0.00 81 1016.7
20260905122541 72 44 1.0 3.0 0.00 0.00 0.00 81 1016.7
20260905122041 72 19 2.0 3.0 0.00 0.00 0.00 81 1016.7
20260905121602 72 10 1.0 3.0 0.00 0.00 0.00 81 1016.7
20260905121042 72 42 1.0 4.0 0.00 0.00 0.00 81 1016.6
20260905120541 72 34 2.0 4.0 0.00 0.00 0.00 81 1016.6
20260905120056 72 20 2.0 4.0 0.00 0.00 0.00 81 1016.5
20260905115544 72 46 0.0 3.0 0.00 0.00 0.00 81 1016.5
20260905115040 72 46 1.0 3.0 0.00 0.00 0.00 81 1016.4
20260905114603 72 33 1.0 3.0 0.00 0.00 0.00 81 1016.4
20260905114041 72 0 1.0 3.0 0.00 0.00 0.00 81 1016.3
20260905113543 72 80 1.0 3.0 0.00 0.00 0.00 81 1016.3
20260905113119 72 46 0.0 2.0 0.00 0.00 0.00 81 1016.1
20260905112540 72 0 0.0 2.0 0.00 0.00 0.00 81 1016.1
20260905112042 72 46 1.0 2.0 0.00 0.00 0.00 81 1016.0
20260905111558 72 46 0.0 2.0 0.00 0.00 0.00 81 1015.8
20260905111041 72 0 1.0 2.0 0.00 0.00 0.00 81 1015.8
20260905110540 72 0 0.0 2.0 0.00 0.00 0.00 81 1015.8
20260905110055 72 0 0.0 2.0 0.00 0.00 0.00 81 1015.6
20260905105540 72 0 0.0 2.0 0.00 0.00 0.00 81 1015.6
20260905105044 72 0 0.0 2.0 0.00 0.00 0.00 81 1015.6